Tracking 27097 objects as of 29-Mar-2023
HD Live streaming from Space Station
objects crossing your sky now

ONEWEB-0665

Track ONEWEB-0665 now!
10-day predictions
ONEWEB-0665 is classified as:


NORAD ID: 55825
Int'l Code: 2023-029AF
Perigee: 587.3 km
Apogee: 607.9 km
Inclination: 86.5 °
Period: 96.5 minutes
Semi major axis: 6968 km
RCS: Unknown
Launch date: March 9, 2023
Source: United Kingdom (UK)
Launch site: AIR FORCE EASTERN TEST RANGE (AFETR)
Your satellite tracking list
Your tracking list is empty




NASA's NSSDC Master Catalog

Two Line Element Set (TLE):
1 55825U 23029AF  23087.81958568  .00008376  00000-0  81376-3 0  9993
2 55825  86.5106 190.9104 0014814 151.4386 208.7657 14.92401605  2844
Source of the keplerian elements: AFSPC